OBJECT W, 62397

Orbit data source: Space-Track

You're viewing an Uncataloged Satellite

Recently launched and/or uncataloged satellites may have evolving metadata. Metadata may include but not limited to: Owner, Maufacturer, Bus, Motor, and Mission.

OBJECT W, 62397 is a satellite in LEO that was launched on Sat, 21 Dec 2024 UTC via an FALCON 9 launch vehicle from the Air Force Western Test Range (AFWTR). Unknown objects in Earth's orbit typically refer to objects detected orbiting the Earth but have not yet been identified or cataloged. These objects could be anything from previously untracked satellites, spent rocket stages, debris from satellite collisions, or even natural meteoroids temporarily captured by Earth's gravity.

Loading next visibility...
Identifier
62397, 2024-247W
Orbit
LEO
Country
Flag of TBDTBD
Related business
None
Manufacturer
Unknown
Mission
Operational Commercial Communications
Bus & Motor
Unknown
Mass
Unknown
Launch date (UTC)
2024-12-21 (1 year ago)
Launch vehicle
FALCON 9
Launch site
Air Force Western Test Range (AFWTR)
Object type
Unknown
Shape & HBR
Box, 0.0 m
Radar Cross Section
0.004 m², Small (<0.1 m²)

Expand to show TLE details & history
Last TLE update: 1 day ago

TLE from 1 day ago
0 OBJECT W
1 62397U 24247W   25346.33129758  .00104182  00000-0  17150-2 0  9996
2 62397  44.9925 203.0956 0011799 203.9285 156.1059 15.51262571 54745
Epoch: 2025-12-12T07:57Z
TLE epoch observation values (Epoch: 2025-12-12T07:57:04.110Z)
Latitude
-0.0001°
Longitude
2.55392°
Altitude
420.363 km
Speed
7.657 km/s
True Right ascension
13h 32m 22s
True Declination
0° 00' 00"
Sunlit
Object was in daylight at epoch
Visualization orbit readout
Latitude
Unknown
Longitude
Unknown
Altitude
Unknown
Speed
Unknown
Apparent Right ascension
Unknown
Apparent Declination
Unknown
Sunlit
N/A
Visualization observer readout
Local Sidereal Time
07:35:02
Azimuth
Unknown
Elevation
Unknown
Doppler factor
Unknown
Orbital elements
Apogee altitude
422.681 km
Perigee altitude
406.651 km
Semi-major axis
6,792.803 km
Eccentricity
0.00118
Inclination
44.9925°
RAAN
203.0956°
Arg. of periapsis
203.9285°
True anomaly
156.16059°
Mean anomaly
156.1059°
Eccentric anomaly
156.13325°
Mean motion
3.87677 °/min
Orbital period
92.86 mins
BSTAR
0.001715
Loading maneuver chart data...
Computing Atmospheric mass density...
Loading historical data...
Loading historical data...
Loading historical data...
Loading historical data...
Loading historical data...
Loading historical data...
Loading historical data...

Documentation

Showing up to 5 results
|